www.pogodaiklimat.ru

Погода и климат >> Архив погоды >> Казахстан >> Жосалы


ПОГОДА в Жосалы

  • Прогноз погоды в Жосалы
  • Монитор погоды в Жосалы
  • Климат города

АРХИВ ПОГОДЫ в Жосалы

Время (UTC), дата Ветер
(напр.,м/с)
 
Видим.   Явления Облачность Т
(С)
Тd
(С)
f
(%)
Тe
(С)
Тes
(С)
Комфортность P
(гПа)
Po
(гПа)
Тmin
(С)
Tmax
(С)
R
(мм)
R24
(мм)
S
(см)
03 11.10 штиль 0 50 км 6/0
[Ci sp]
+4.9 -1.7 62 +4 +5 1026.6 1013.7
06 11.10 Ю 2 50 км 4/0
[Ci sp]
+17.7 -0.7 29 +18 +24 1025.2 1012.9 +4.3
09 11.10 Ю 5 50 км 6/0
[Ci fib]
+21.3 +0.6 25 +21 +24 комфорт 1022.2 1010.1
12 11.10 ЮЗ 5 50 км 6/0
[Ci fib]
+21.5 +0.9 25 +21 +22 комфорт 1020.3 1008.3
15 11.10 Ю 5 н/о 3/0
[Ci fib]
+14.2 +1.5 42 +13 +13 1019.9 1007.5 +22.4
18 11.10 ЮЗ 6 н/о 3/0
[Ci fib]
+11.4 +0.2 46 +9 +9 1018.5 1006.0 +22.4
21 11.10 Ю 3 н/о 3/0
[Ci fib]
+9.7 +0.6 53 +8 +8 1016.7 1004.2
00 12.10 Ю 7 н/о 4/0
[Ci sp]
+8.8 +0.2 55 +5 +5 1014.6 1002.1
03 12.10 Ю 12-15
{15}
50 км 8/0
[Ac trans Ci sp]
+11.4 +1.7 51 +7 +7 1012.3 1000.0
06 12.10 ЮЗ 15-20
{20}
50 км 9/9 600 м
[Sc]
+14.5 +1.7 42 +11 +11 1011.7 999.5 +8.6
09 12.10 ЮЗ 8
{20}
4000 м слабый дождь 10/10 600 м
[Sc]
+10.3 +6.7 78 +6 +6 1012.7 1000.3
12 12.10 ЮЗ 4 50 км {дождь} 4/3 600 м
[Sc Ac trans]
+12.3 +5.6 64 +11 +11 1013.2 1000.9
15 12.10 З 5 н/о 3/3 600 м
[Sc diur, vesp]
+8.5 +2.1 64 +5 +5 1014.2 1001.7 +15.3
18 12.10 З 4 н/о ясно +2.3 -3.0 68 -2 -2 1014.9 1002.1 +15.3 0.4
21 12.10 З 3 н/о 4/4 600 м
[Sc]
+0.5 -4.2 71 -4 -4 1015.0 1002.1
00 13.10 З 3 н/о 8/6 600 м
[Sc Ac trans]
+2.9 -1.6 72 -1 -1 1016.0 1003.2
03 13.10 З 7 50 км в посл. час дождь 9/8 600 м
[Sc Ac trans]
+4.3 +0.1 74 -1 -1 1017.8 1005.0
06 13.10 З 18-23
{23}
50 км {дождь} 8/8 600 м
[Sc]
+6.3 -2.5 53 -1 -1 1020.5 1007.8 0.0 0.0
09 13.10 З 20-25
{25}
50 км 8/8 600 м
[Sc]
+8.7 -5.7 36 +3 +3 1021.5 1008.9
12 13.10 З 23-28
{28}
50 км 8/8 600 м
[Sc]
+8.6 -8.6 29 +2 +2 1022.4 1009.8
15 13.10 ЮЗ 12-15
{28}
н/о 8/4 600 м
[Sc Ci sp]
+6.1 -7.3 38 0 0 1024.1 1011.5 +10.6
18 13.10 ЮЗ 6
{15}
н/о 9/9 600 м
[Sc]
+6.3 -5.6 42 +2 +2 1024.4 1011.8 +10.6
21 13.10 ЮЗ 3 н/о 3/0
[Ac trans]
+3.4 -5.3 53 0 0 1024.4 1011.6
00 14.10 ЮЗ 2 н/о 8/0
[Ac trans]
+2.2 -4.2 63 -1 -1 1024.0 1011.1
03 14.10 Ю 5 50 км 9/9 600 м
[Sc]
+4.6 -2.4 60 0 0 1023.3 1010.5
06 14.10 Ю 4 4000 м слабый дождь 10/0
[As op]
+4.6 +2.6 87 0 +1 1023.1 1010.3 +1.0
09 14.10 Ю 4 4000 м слабый дождь 10/0
[As op]
+4.0 +2.0 87 -1 0 1021.9 1009.1
12 14.10 З 4 50 км {дождь} 8/8 600 м
[Sc]
+6.2 +3.3 82 +2 +3 1020.3 1007.6
15 14.10 штиль 0 н/о 8/8 600 м
[Sc]
+5.0 +3.3 89 +4 +4 1019.2 1006.4 +6.6
18 14.10 штиль 0 н/о 3/3 600 м
[Sc]
+3.2 +1.7 90 +2 +2 1018.4 1005.6 +6.6 2
21 14.10 штиль 0 н/о ясно +0.5 -0.6 92 -1 -1 1017.1 1004.2
00 15.10 штиль 0 н/о туман 8/0
[Ci sp]
-2.3 -2.3 100 -4 -4 1016.6 1003.6
03 15.10 З 1 200 м переохл. туман ?/? -3.2 -3.2 100 -6 -6 1015.9 1002.8
06 15.10 СЗ 5 50 км {туман} 3/0
[Ci sp]
+5.1 +1.6 78 +1 +3 1015.6 1002.8 -3.2
09 15.10 З 7 50 км 8/8 600 м
[Sc diur, vesp]
+9.6 -4.7 36 +6 +7 1015.2 1002.6
12 15.10 ЮЗ 10 50 км 8/6 600 м
[Cb calv Ac cuf]
+9.0 -7.1 31 +5 +5 1016.5 1003.9
15 15.10 З 13-16
{16}
н/о в посл. час ливневой дождь 9/9 600 м
[Cb calv]
+5.2 -2.3 58 -1 -1 1018.7 1005.9 +10.8
18 15.10 СЗ 3
{16}
н/о в посл. час дождь {ливн. осадки} 10/0
[As op]
+1.8 -0.4 85 -2 -2 1020.5 1007.6 +10.8 0.0
21 15.10 З 4 н/о {дождь} 10/0
[As op]
+1.2 -0.2 90 -4 -4 1021.3 1008.3
00 16.10 З 5 н/о {дождь} ясно -1.0 -2.6 89 -7 -7 1022.7 1009.6
03 16.10 СЗ 6 50 км ясно -2.8 -4.8 86 -10 -10 1024.8 1011.6
06 16.10 СЗ 6 4000 м дымка 10/10 300 м
[St]
-0.4 -3.8 78 -7 -7 1026.9 1013.8 -3.0 1
09 16.10 СЗ 5 50 км 9/9 600 м
[Sc]
+2.6 -2.6 69 -2 -2 1028.0 1015.0
12 16.10 С 5 50 км 6/6 600 м
[Sc]
+5.5 -2.6 56 +2 +2 1029.5 1016.6
15 16.10 СЗ 3 н/о 3/3 600 м
[Sc]
+1.8 -1.9 76 -2 -2 1031.5 1018.5 +5.9
18 16.10 З 2 н/о 3/0
[Ac trans]
-1.6 -4.5 81 -5 -5 1033.3 1020.1 +5.9
21 16.10 ЮЗ 2 н/о ясно -3.8 -6.0 85 -8 -8 1034.5 1021.2
00 17.10 штиль 0 н/о ясно -6.3 -8.2 86 -7 -7 1035.1 1021.7
03 17.10 штиль 0 50 км 8/0
[Ci fib]
-5.9 -8.1 84 -7 -7 1036.2 1022.7
06 17.10 Ю 3 50 км 8/0
[Ci fib]
+6.1 -1.8 57 +3 +7 1035.2 1022.4 -6.5
09 17.10 ЮЗ 9 50 км 9/6 600 м
[Sc Ac trans Ci sp]
+8.2 -4.4 41 +4 +4 1033.1 1020.3
12 17.10 ЮЗ 12-15
{15}
50 км 10/10 600 м
[Sc]
+8.8 -7.4 31 +4 +4 1031.5 1018.7
15 17.10 ЮЗ 5
{15}
н/о 10/10 600 м
[Sc]
+8.1 -5.7 37 +5 +5 1030.2 1017.5 +9.4
18 17.10 Ю 12-15
{15}
н/о 10/10 600 м
[Sc]
+7.7 -5.4 39 +3 +3 1028.8 1016.1 +9.4
21 17.10 Ю 15-20
{20}
н/о 10/10 600 м
[Sc]
+5.4 -5.4 46 -1 -1 1027.0 1014.1

 

Местоположение метеостанции Жосалы (Кызылординская область, Казахстан): широта 45.50 долгота 64.08 высота над уровнем моря 103 м.

В архиве по умолчанию представлена погода в Жосалы за последнюю неделю. Архивные данные за месяц целиком и за предыдущие месяцы, начиная с января 2011 года, Вы можете получить, выбрав интересующий диапазон дат из раскрывающегося списка и нажав кнопку "Ввод!".


*Определитесь, кто Вы:
робот инопланетянин человек

Внимание! Время в таблицах - всемирное. Для получения местного времени необходимо прибавить поправку, которая в Жосалы равна 6 ч.

Смотрите также архив погоды в соседних городах и на ближайших метеорологических станциях:

Погода в Акае (Кызылординская область, Казахстан) (64 км)
Погода в Жалагаше (Кызылординская область, Казахстан) (66 км)
Погода в Караке (Кызылординская область, Казахстан) (99 км)
Погода в Кызылорде (Кызылординская область, Казахстан) (133 км)
Погода в Тасбугете (Кызылординская область, Казахстан) (140 км)
Погода в Казалинске (Кызылординская область, Казахстан) (155 км)
Погода в Ширик-Рабате (Кызылординская область, Казахстан) (184 км)
Погода в Каукее (Кызылординская область, Казахстан) (189 км)
Погода в Акбакае (Жамбылская область, Казахстан) (228 км)
Погода в Кульжамбае (Карагандинская область, Казахстан) (232 км)

Пояснения к столбцам:

Ветер - указаны скорость ветра в м/с - средняя за 10 мин, порывы в срок и между сроками (в фигурных скобках) и направление, откуда дует ветер: С - северный, СВ - северо-восточный, В - восточный, ЮВ - юго-восточный, Ю - южный, ЮЗ - юго-западный, З - западный, СЗ - северо-западный.
Видимость - горизонтальная дальность видимости в метрах или километрах. При видимости от 1 до 10 км при отсутствии осадков обычно наблюдается дымка, при ухудшении видимости до 1 км и менее - туман. В сухую погоду видимость может ухудшаться дымом, пылью или мглою.
Явления - указаны атмосферные явления, наблюдавшиеся в срок или в последний час перед сроком; фигурными скобками обозначены явления, наблюдавшиеся между сроками (за 1-3 часа до срока); квадратными скобками обозначены град или гололедные отложения с указанием их диаметра в мм.
Облачность - указаны через наклонную черту общая и нижняя облачность в баллах и высота нижней границы облаков в метрах; квадратными скобками обозначены формы облаков: Ci - перистые, Cs - перисто-слоистые, Cc - перисто-кучевые, Ac - высококучевые, As - высокослоистые, Sc - слоисто-кучевые, Ns - слоисто-дождевые, Cu - кучевые, Cb - кучево-дождевые. Подробнее классификацию облаков см. в Атласе облаков (PDF).
T - Температура воздуха - температура, измеренная на высоте 2 м над землей.
Td - Температура точки росы - температура, при понижении до которой содержащийся в воздухе водяной пар достигнет насыщения.
f - Относительная влажность воздуха - влажноcть воздуха, измеренная на высоте 2 м над землей.
Te - Эффективная температура - температура, которую ощущает одетый по сезону человек в тени. Характеристика душности погоды. При расчете учитывается влияние влажности воздуха и скорости ветра на теплоощущения человека.
Tes - Эффективная температура на солнце - температура, которую ощущает человек, с поправкой на солнечный нагрев. Характеристика знойности погоды. Зависит от высоты солнца над горизонтом, облачности и скорости ветра. Ночью, в пасмурную погоду, а также при ветре 12 м/с и более поправка равна нулю.
P - Атмосферное давление - приведенное к уровню моря атмосферное давление.
Po - Атмосферное давление - измеренное на уровне метеостанции атмосферное давление.
Tmin - Минимальная температура - минимум температуры воздуха на высоте 2 м над землей.
Tmax - Максимальная температура - максимум температуры воздуха на высоте 2 м над землей.
R - Количество осадков - Количество выпавших осадков за период времени, мм. При наведении курсора мыши на число - период времени, за который выпало указанное количество осадков.
R24 - Количество осадков - Количество выпавших осадков за 24 часа, мм.
S - Снежный покров - Высота снежного покрова, см. При наведении курсора мыши на число - состояние снежного покрова и степень покрытия местности в баллах.